Time,TemperatureF,DewpointF,PressureIn,WindDirection,WindDirectionDegrees,WindSpeedMPH,WindSpeedGustMPH,Humidity,HourlyPrecipIn,Conditions,Clouds,dailyrainin,SoftwareType,DateUTC
2013-02-27 00:00:00,31.6,15.1,30.19,ESE,112,2.2,2.7,50,0.00,,BKN200,0.00,VWS V14.01,2013-02-27 08:00:00,
2013-02-27 00:05:00,32.0,15.5,30.19,ESE,109,0.0,0.0,50,0.00,,OVC110,0.00,VWS V14.01,2013-02-27 08:05:00,
2013-02-27 00:10:00,32.2,15.6,30.16,ESE,104,2.7,2.7,50,0.00,,OVC110,0.00,VWS V14.01,2013-02-27 08:10:00,
2013-02-27 00:15:00,32.5,15.5,30.16,East,91,0.0,0.0,49,0.00,,OVC110,0.00,VWS V14.01,2013-02-27 08:15:00,
2013-02-27 00:20:00,32.7,15.2,30.16,East,90,0.0,0.0,48,0.00,,OVC110,0.00,VWS V14.01,2013-02-27 08:20:00,
2013-02-27 00:25:00,32.7,15.2,30.19,East,90,0.0,0.0,48,0.00,,OVC110,0.00,VWS V14.01,2013-02-27 08:25:00,
2013-02-27 00:30:00,32.7,15.2,30.19,East,91,0.0,0.0,48,0.00,,OVC110,0.00,VWS V14.01,2013-02-27 08:30:00,
2013-02-27 00:35:00,32.7,15.2,30.19,East,89,2.2,2.2,48,0.00,,OVC110,0.00,VWS V14.01,2013-02-27 08:35:00,
2013-02-27 00:40:00,32.9,14.9,30.19,East,85,2.2,3.1,47,0.00,,OVC110,0.00,VWS V14.01,2013-02-27 08:40:00,
2013-02-27 00:45:00,32.9,14.4,30.19,ENE,78,2.7,3.1,46,0.00,,OVC110,0.00,VWS V14.01,2013-02-27 08:45:00,
2013-02-27 00:50:00,33.1,14.6,30.19,East,96,3.6,3.6,46,0.00,,OVC110,0.00,VWS V14.01,2013-02-27 08:50:00,
2013-02-27 00:55:00,33.1,14.6,30.16,ENE,60,3.6,4.0,46,0.00,,OVC110,0.00,VWS V14.01,2013-02-27 08:55:00,
2013-02-27 01:00:00,33.3,14.2,30.16,ENE,78,0.0,3.1,45,0.00,,OVC110,0.00,VWS V14.01,2013-02-27 09:00:00,
2013-02-27 01:05:00,33.1,14.1,30.16,ENE,74,2.2,2.2,45,0.00,,OVC250,0.00,VWS V14.01,2013-02-27 09:05:00,
2013-02-27 01:10:00,32.9,14.4,30.16,SE,127,3.1,3.1,46,0.00,,OVC250,0.00,VWS V14.01,2013-02-27 09:10:00,
2013-02-27 01:15:00,32.7,14.2,30.16,SE,126,0.0,0.0,46,0.00,,OVC250,0.00,VWS V14.01,2013-02-27 09:15:00,
2013-02-27 01:20:00,32.7,14.7,30.16,SE,130,0.0,0.0,47,0.00,,OVC250,0.00,VWS V14.01,2013-02-27 09:20:00,
2013-02-27 01:25:00,32.7,14.7,30.16,South,191,2.2,4.0,47,0.00,,OVC250,0.00,VWS V14.01,2013-02-27 09:25:00,
2013-02-27 01:30:00,32.7,14.7,30.16,South,181,0.0,0.0,47,0.00,,OVC250,0.00,VWS V14.01,2013-02-27 09:30:00,
2013-02-27 01:35:00,32.9,14.9,30.16,South,175,0.0,0.0,47,0.00,,OVC250,0.00,VWS V14.01,2013-02-27 09:35:00,
2013-02-27 01:40:00,33.1,14.6,30.16,ENE,65,4.0,4.0,46,0.00,,OVC250,0.00,VWS V14.01,2013-02-27 09:40:00,
2013-02-27 01:45:00,33.3,14.2,30.16,ENE,74,3.6,3.6,45,0.00,,OVC250,0.00,VWS V14.01,2013-02-27 09:45:00,
2013-02-27 01:50:00,33.4,14.4,30.16,ESE,103,3.1,4.0,45,0.00,,OVC250,0.00,VWS V14.01,2013-02-27 09:50:00,
2013-02-27 01:55:00,33.6,14.6,30.16,ESE,102,0.0,0.0,45,0.00,,OVC250,0.00,VWS V14.01,2013-02-27 09:55:00,
2013-02-27 02:00:00,33.6,14.6,30.16,ESE,102,0.0,2.2,45,0.00,,OVC250,0.00,VWS V14.01,2013-02-27 10:00:00,
2013-02-27 02:05:00,33.6,14.1,30.16,East,101,2.7,3.1,44,0.00,,OVC100,0.00,VWS V14.01,2013-02-27 10:05:00,
2013-02-27 02:10:00,33.8,13.7,30.16,ENE,66,3.1,3.1,43,0.00,,OVC100,0.00,VWS V14.01,2013-02-27 10:10:00,
2013-02-27 02:15:00,34.0,13.9,30.16,ENE,71,3.1,3.6,43,0.00,,OVC100,0.00,VWS V14.01,2013-02-27 10:15:00,
2013-02-27 02:20:00,33.8,13.7,30.16,East,79,0.0,0.0,43,0.00,,OVC100,0.00,VWS V14.01,2013-02-27 10:20:00,
2013-02-27 02:25:00,33.8,13.7,30.16,East,101,3.1,3.1,43,0.00,,OVC100,0.00,VWS V14.01,2013-02-27 10:25:00,
2013-02-27 02:30:00,33.8,13.7,30.16,ENE,76,2.7,3.1,43,0.00,,OVC100,0.00,VWS V14.01,2013-02-27 10:30:00,
2013-02-27 02:35:00,34.0,13.3,30.16,East,82,2.7,5.4,42,0.00,,OVC100,0.00,VWS V14.01,2013-02-27 10:35:00,
2013-02-27 02:40:00,34.0,13.3,30.16,ENE,74,3.1,4.0,42,0.00,,OVC100,0.00,VWS V14.01,2013-02-27 10:40:00,
2013-02-27 02:45:00,34.0,13.3,30.16,ENE,77,0.0,0.0,42,0.00,,OVC100,0.00,VWS V14.01,2013-02-27 10:45:00,
2013-02-27 02:50:00,34.0,13.9,30.16,East,83,0.0,2.2,43,0.00,,OVC100,0.00,VWS V14.01,2013-02-27 10:50:00,
2013-02-27 02:55:00,33.8,13.7,30.16,East,81,2.7,2.7,43,0.00,,OVC100,0.00,VWS V14.01,2013-02-27 10:55:00,
2013-02-27 03:00:00,33.8,13.7,30.16,ENE,74,3.6,3.6,43,0.00,,OVC100,0.00,VWS V14.01,2013-02-27 11:00:00,
2013-02-27 03:05:00,33.8,13.7,30.16,ENE,74,0.0,2.2,43,0.00,,OVC080,0.00,VWS V14.01,2013-02-27 11:05:00,
2013-02-27 03:10:00,33.8,13.7,30.16,ENE,78,0.0,0.0,43,0.00,,OVC080,0.00,VWS V14.01,2013-02-27 11:10:00,
2013-02-27 03:15:00,33.8,13.7,30.16,ENE,73,2.7,2.7,43,0.00,,OVC080,0.00,VWS V14.01,2013-02-27 11:15:00,
2013-02-27 03:20:00,33.6,14.1,30.16,ESE,103,3.6,3.6,44,0.00,,OVC080,0.00,VWS V14.01,2013-02-27 11:20:00,
2013-02-27 03:25:00,33.6,14.1,30.16,SE,132,3.6,3.6,44,0.00,,OVC080,0.00,VWS V14.01,2013-02-27 11:25:00,
2013-02-27 03:30:00,33.6,14.1,30.16,SE,132,0.0,2.2,44,0.00,,OVC080,0.00,VWS V14.01,2013-02-27 11:30:00,
2013-02-27 03:35:00,33.6,14.1,30.16,SE,134,0.0,2.2,44,0.00,,OVC080,0.00,VWS V14.01,2013-02-27 11:35:00,
2013-02-27 03:40:00,33.6,14.1,30.16,SE,135,0.0,0.0,44,0.00,,OVC080,0.00,VWS V14.01,2013-02-27 11:40:00,
2013-02-27 03:45:00,33.6,14.1,30.16,SE,139,0.0,0.0,44,0.00,,OVC080,0.00,VWS V14.01,2013-02-27 11:45:00,
2013-02-27 03:50:00,33.6,14.1,30.16,SE,141,3.1,3.1,44,0.00,,OVC080,0.00,VWS V14.01,2013-02-27 11:50:00,
2013-02-27 03:55:00,33.6,14.6,30.16,SSW,207,3.1,4.0,45,0.00,,OVC080,0.00,VWS V14.01,2013-02-27 11:55:00,
2013-02-27 04:00:00,33.4,14.4,30.16,South,177,3.1,3.1,45,0.00,,OVC080,0.00,VWS V14.01,2013-02-27 12:00:00,
2013-02-27 04:05:00,33.4,14.4,30.16,SSW,196,0.0,2.2,45,0.00,,OVC065,0.00,VWS V14.01,2013-02-27 12:05:00,
2013-02-27 04:10:00,33.4,14.4,30.14,South,175,0.0,0.0,45,0.00,,OVC065,0.00,VWS V14.01,2013-02-27 12:10:00,
2013-02-27 04:15:00,33.4,13.9,30.14,ENE,60,3.1,3.1,44,0.00,,OVC065,0.00,VWS V14.01,2013-02-27 12:15:00,
2013-02-27 04:20:00,33.6,14.1,30.14,ENE,63,2.7,2.7,44,0.00,,OVC065,0.00,VWS V14.01,2013-02-27 12:20:00,
2013-02-27 04:25:00,33.6,14.1,30.14,East,85,3.6,3.6,44,0.00,,OVC065,0.00,VWS V14.01,2013-02-27 12:25:00,
2013-02-27 04:30:00,33.6,14.1,30.14,East,92,4.0,4.0,44,0.00,,OVC065,0.00,VWS V14.01,2013-02-27 12:30:00,
2013-02-27 04:35:00,33.8,13.7,30.14,East,81,0.0,0.0,43,0.00,,OVC065,0.00,VWS V14.01,2013-02-27 12:35:00,
2013-02-27 04:40:00,33.8,13.7,30.14,East,89,0.0,0.0,43,0.00,,OVC065,0.00,VWS V14.01,2013-02-27 12:40:00,
2013-02-27 04:45:00,33.8,13.7,30.14,ESE,119,2.7,3.1,43,0.00,,OVC065,0.00,VWS V14.01,2013-02-27 12:45:00,
2013-02-27 04:50:00,33.8,13.7,30.14,ESE,123,0.0,0.0,43,0.00,,OVC065,0.00,VWS V14.01,2013-02-27 12:50:00,
2013-02-27 04:55:00,33.8,13.7,30.14,ESE,106,2.2,2.2,43,0.00,,OVC065,0.00,VWS V14.01,2013-02-27 12:55:00,
2013-02-27 05:00:00,34.0,13.9,30.14,SE,142,0.0,0.0,43,0.00,,OVC065,0.00,VWS V14.01,2013-02-27 13:00:00,
2013-02-27 05:05:00,34.0,13.9,30.14,ESE,108,0.0,2.7,43,0.00,,OVC080,0.00,VWS V14.01,2013-02-27 13:05:00,
2013-02-27 05:10:00,34.0,13.3,30.16,East,97,0.0,3.1,42,0.00,,OVC080,0.00,VWS V14.01,2013-02-27 13:10:00,
2013-02-27 05:15:00,34.0,13.9,30.16,SSW,209,3.6,3.6,43,0.00,,OVC080,0.00,VWS V14.01,2013-02-27 13:15:00,
2013-02-27 05:20:00,34.0,13.9,30.16,SW,231,0.0,0.0,43,0.00,,OVC080,0.00,VWS V14.01,2013-02-27 13:20:00,
2013-02-27 05:25:00,33.8,13.7,30.16,SE,131,0.0,2.7,43,0.00,,OVC080,0.00,VWS V14.01,2013-02-27 13:25:00,
2013-02-27 05:30:00,33.8,13.7,30.16,SE,146,0.0,0.0,43,0.00,,OVC080,0.00,VWS V14.01,2013-02-27 13:30:00,
2013-02-27 05:35:00,33.8,13.7,30.16,East,101,2.2,2.2,43,0.00,,OVC080,0.00,VWS V14.01,2013-02-27 13:35:00,
2013-02-27 05:40:00,34.0,13.3,30.16,ESE,111,0.0,2.2,42,0.00,,OVC080,0.00,VWS V14.01,2013-02-27 13:40:00,
2013-02-27 05:45:00,34.0,13.3,30.16,ESE,105,0.0,0.0,42,0.00,,OVC080,0.00,VWS V14.01,2013-02-27 13:45:00,
2013-02-27 05:50:00,34.0,13.3,30.16,East,81,0.0,0.0,42,0.00,,OVC080,0.00,VWS V14.01,2013-02-27 13:50:00,
2013-02-27 05:55:00,34.0,13.3,30.16,SSE,160,0.0,0.0,42,0.00,,OVC080,0.00,VWS V14.01,2013-02-27 13:55:00,
2013-02-27 06:00:00,34.0,13.3,30.16,South,191,0.0,0.0,42,0.00,,OVC080,0.00,VWS V14.01,2013-02-27 14:00:00,
2013-02-27 06:05:00,34.0,13.3,30.16,South,182,0.0,0.0,42,0.00,,,0.00,VWS V14.01,2013-02-27 14:05:00,
2013-02-27 06:10:00,34.0,13.3,30.16,South,179,0.0,0.0,42,0.00,,,0.00,VWS V14.01,2013-02-27 14:10:00,
2013-02-27 06:15:00,34.0,13.9,30.16,SE,138,2.2,2.2,43,0.00,,,0.00,VWS V14.01,2013-02-27 14:15:00,
2013-02-27 06:20:00,33.8,13.7,30.16,SSE,162,0.0,0.0,43,0.00,,,0.00,VWS V14.01,2013-02-27 14:20:00,
2013-02-27 06:25:00,33.8,13.7,30.16,SSE,162,0.0,0.0,43,0.00,,,0.00,VWS V14.01,2013-02-27 14:25:00,
2013-02-27 06:30:00,33.8,13.7,30.16,SE,134,0.0,0.0,43,0.00,,,0.00,VWS V14.01,2013-02-27 14:30:00,
2013-02-27 06:35:00,33.8,13.7,30.16,SE,135,2.2,2.2,43,0.00,,,0.00,VWS V14.01,2013-02-27 14:35:00,
2013-02-27 06:40:00,33.8,13.7,30.16,South,177,0.0,0.0,43,0.00,,,0.00,VWS V14.01,2013-02-27 14:40:00,
2013-02-27 06:45:00,33.8,13.7,30.16,South,176,0.0,0.0,43,0.00,,,0.00,VWS V14.01,2013-02-27 14:45:00,
2013-02-27 06:50:00,33.8,13.7,30.16,SE,131,0.0,2.2,43,0.00,,,0.00,VWS V14.01,2013-02-27 14:50:00,
2013-02-27 06:55:00,33.8,13.7,30.16,SE,145,0.0,3.1,43,0.00,,,0.00,VWS V14.01,2013-02-27 14:55:00,
2013-02-27 07:00:00,34.0,13.9,30.16,SSE,147,0.0,2.7,43,0.00,,,0.00,VWS V14.01,2013-02-27 15:00:00,
2013-02-27 07:05:00,34.2,14.0,30.16,SSE,148,0.0,0.0,43,0.00,,SCT080,0.00,VWS V14.01,2013-02-27 15:05:00,
2013-02-27 07:10:00,34.3,14.2,30.16,SE,146,3.1,3.1,43,0.00,,SCT080,0.00,VWS V14.01,2013-02-27 15:10:00,
2013-02-27 07:15:00,34.5,14.3,30.16,SSE,151,0.0,0.0,43,0.00,,SCT080,0.00,VWS V14.01,2013-02-27 15:15:00,
2013-02-27 07:20:00,34.5,14.3,30.16,SE,125,0.0,0.0,43,0.00,,SCT080,0.00,VWS V14.01,2013-02-27 15:20:00,
2013-02-27 07:25:00,34.9,14.7,30.16,ESE,123,0.0,0.0,43,0.00,,SCT080,0.00,VWS V14.01,2013-02-27 15:25:00,
2013-02-27 07:30:00,35.1,14.3,30.16,ESE,123,0.0,0.0,42,0.00,,SCT080,0.00,VWS V14.01,2013-02-27 15:30:00,
2013-02-27 07:35:00,35.2,14.5,30.16,SW,226,2.2,2.2,42,0.00,,SCT080,0.00,VWS V14.01,2013-02-27 15:35:00,
2013-02-27 07:40:00,35.2,14.5,30.19,SW,226,0.0,0.0,42,0.00,,SCT080,0.00,VWS V14.01,2013-02-27 15:40:00,
2013-02-27 07:45:00,35.4,14.6,30.19,SW,226,0.0,0.0,42,0.00,,SCT080,0.00,VWS V14.01,2013-02-27 15:45:00,
2013-02-27 07:50:00,35.6,14.8,30.19,SSW,201,2.2,2.2,42,0.00,,SCT080,0.00,VWS V14.01,2013-02-27 15:50:00,
2013-02-27 07:55:00,35.8,14.4,30.19,South,181,0.0,0.0,41,0.00,,SCT080,0.00,VWS V14.01,2013-02-27 15:55:00,
2013-02-27 08:00:00,36.1,15.3,30.19,South,181,0.0,0.0,42,0.00,,SCT080,0.00,VWS V14.01,2013-02-27 16:00:00,
2013-02-27 08:05:00,36.5,15.1,30.19,South,171,0.0,0.0,41,0.00,,BKN200,0.00,VWS V14.01,2013-02-27 16:05:00,
2013-02-27 08:10:00,36.7,15.2,30.19,SSE,151,4.0,4.0,41,0.00,,BKN200,0.00,VWS V14.01,2013-02-27 16:10:00,
2013-02-27 08:15:00,36.9,15.4,30.19,SSE,148,0.0,0.0,41,0.00,,BKN200,0.00,VWS V14.01,2013-02-27 16:15:00,
2013-02-27 08:20:00,37.2,15.1,30.19,SSW,211,3.1,3.1,40,0.00,,BKN200,0.00,VWS V14.01,2013-02-27 16:20:00,
2013-02-27 08:25:00,37.6,15.5,30.19,SSW,202,0.0,2.2,40,0.00,,BKN200,0.00,VWS V14.01,2013-02-27 16:25:00,
2013-02-27 08:30:00,37.8,15.0,30.19,South,178,2.7,3.1,39,0.00,,BKN200,0.00,VWS V14.01,2013-02-27 16:30:00,
2013-02-27 08:35:00,37.9,15.2,30.19,SW,214,0.0,3.1,39,0.00,,BKN200,0.00,VWS V14.01,2013-02-27 16:35:00,
2013-02-27 08:40:00,38.1,15.4,30.19,South,191,8.3,10.1,39,0.00,,BKN200,0.00,VWS V14.01,2013-02-27 16:40:00,
2013-02-27 08:45:00,38.5,15.7,30.19,SW,214,8.3,8.3,39,0.00,,BKN200,0.00,VWS V14.01,2013-02-27 16:45:00,
2013-02-27 08:50:00,38.7,15.3,30.19,WSW,249,5.4,7.6,38,0.00,,BKN200,0.00,VWS V14.01,2013-02-27 16:50:00,
2013-02-27 08:55:00,39.2,14.5,30.19,SW,223,8.1,10.1,36,0.00,,BKN200,0.00,VWS V14.01,2013-02-27 16:55:00,
2013-02-27 09:00:00,39.6,14.8,30.19,West,269,8.3,10.5,36,0.00,,BKN200,0.00,VWS V14.01,2013-02-27 17:00:00,
2013-02-27 09:05:00,39.9,14.5,30.19,WSW,240,8.3,8.3,35,0.00,,BKN200,0.00,VWS V14.01,2013-02-27 17:05:00,
2013-02-27 09:10:00,40.3,14.8,30.19,WSW,248,4.9,8.7,35,0.00,,BKN200,0.00,VWS V14.01,2013-02-27 17:10:00,
2013-02-27 09:15:00,40.5,14.3,30.19,WSW,237,6.3,6.3,34,0.00,,BKN200,0.00,VWS V14.01,2013-02-27 17:15:00,
2013-02-27 09:20:00,40.3,14.8,30.19,WSW,245,9.6,10.1,35,0.00,,BKN200,0.00,VWS V14.01,2013-02-27 17:20:00,
2013-02-27 09:25:00,40.3,14.2,30.19,SW,220,5.4,7.6,34,0.00,,BKN200,0.00,VWS V14.01,2013-02-27 17:25:00,
2013-02-27 09:30:00,40.3,14.8,30.19,SW,223,6.3,6.3,35,0.00,,BKN200,0.00,VWS V14.01,2013-02-27 17:30:00,
2013-02-27 09:35:00,40.5,15.0,30.19,SW,225,8.1,8.1,35,0.00,,BKN200,0.00,VWS V14.01,2013-02-27 17:35:00,
2013-02-27 09:40:00,40.8,15.3,30.19,SW,221,7.6,7.6,35,0.00,,BKN200,0.00,VWS V14.01,2013-02-27 17:40:00,
2013-02-27 09:45:00,41.0,14.8,30.19,SW,217,8.1,11.0,34,0.00,,BKN200,0.00,VWS V14.01,2013-02-27 17:45:00,
2013-02-27 09:50:00,41.4,15.1,30.19,SSW,196,8.3,8.7,34,0.00,,BKN200,0.00,VWS V14.01,2013-02-27 17:50:00,
2013-02-27 09:55:00,41.5,15.9,30.19,WSW,242,5.4,7.6,35,0.00,,BKN200,0.00,VWS V14.01,2013-02-27 17:55:00,
2013-02-27 10:00:00,41.9,15.6,30.19,WSW,237,5.4,8.1,34,0.00,,BKN200,0.00,VWS V14.01,2013-02-27 18:00:00,
2013-02-27 10:05:00,41.9,15.6,30.19,West,260,10.5,12.8,34,0.00,,SCT200,0.00,VWS V14.01,2013-02-27 18:05:00,
2013-02-27 10:10:00,41.7,16.1,30.19,SW,220,8.1,8.1,35,0.00,,SCT200,0.00,VWS V14.01,2013-02-27 18:10:00,
2013-02-27 10:15:00,42.8,18.4,30.19,SW,231,11.0,11.0,37,0.00,,SCT200,0.00,VWS V14.01,2013-02-27 18:15:00,
2013-02-27 10:20:00,44.2,18.3,30.19,SW,225,8.7,15.4,35,0.00,,SCT200,0.00,VWS V14.01,2013-02-27 18:20:00,
2013-02-27 10:25:00,43.5,17.0,30.19,WSW,243,10.1,11.0,34,0.00,,SCT200,0.00,VWS V14.01,2013-02-27 18:25:00,
2013-02-27 10:30:00,43.3,17.5,30.19,West,263,5.8,5.8,35,0.00,,SCT200,0.00,VWS V14.01,2013-02-27 18:30:00,
2013-02-27 10:35:00,43.5,18.4,30.19,SW,222,8.1,8.1,36,0.00,,SCT200,0.00,VWS V14.01,2013-02-27 18:35:00,
2013-02-27 10:40:00,44.4,17.8,30.19,West,265,11.0,11.0,34,0.00,,SCT200,0.00,VWS V14.01,2013-02-27 18:40:00,
2013-02-27 10:45:00,44.8,18.1,30.19,WSW,237,8.3,10.1,34,0.00,,SCT200,0.00,VWS V14.01,2013-02-27 18:45:00,
2013-02-27 10:50:00,45.1,17.8,30.19,WSW,239,12.8,12.8,33,0.00,,SCT200,0.00,VWS V14.01,2013-02-27 18:50:00,
2013-02-27 10:55:00,45.5,18.1,30.19,WSW,237,5.4,8.3,33,0.00,,SCT200,0.00,VWS V14.01,2013-02-27 18:55:00,
2013-02-27 11:00:00,45.7,18.9,30.19,WSW,246,12.3,12.8,34,0.00,,SCT200,0.00,VWS V14.01,2013-02-27 19:00:00,
2013-02-27 11:05:00,46.2,18.7,30.19,SW,224,8.3,8.7,33,0.00,,SCT200,0.00,VWS V14.01,2013-02-27 19:05:00,
2013-02-27 11:10:00,46.0,18.6,30.19,West,263,12.8,12.8,33,0.00,,SCT200,0.00,VWS V14.01,2013-02-27 19:10:00,
2013-02-27 11:15:00,46.4,18.9,30.19,WSW,251,7.2,10.1,33,0.00,,SCT200,0.00,VWS V14.01,2013-02-27 19:15:00,
2013-02-27 11:20:00,47.3,19.7,30.19,SW,235,8.1,8.3,33,0.00,,SCT200,0.00,VWS V14.01,2013-02-27 19:20:00,
2013-02-27 11:25:00,47.5,19.1,30.19,WSW,237,5.8,7.6,32,0.00,,SCT200,0.00,VWS V14.01,2013-02-27 19:25:00,
2013-02-27 11:30:00,48.2,19.0,30.19,SW,232,12.8,12.8,31,0.00,,SCT200,0.00,VWS V14.01,2013-02-27 19:30:00,
2013-02-27 11:35:00,48.6,19.3,30.19,WSW,239,10.5,11.0,31,0.00,,SCT200,0.00,VWS V14.01,2013-02-27 19:35:00,
2013-02-27 11:40:00,48.0,18.8,30.22,WSW,246,10.5,10.5,31,0.00,,SCT200,0.00,VWS V14.01,2013-02-27 19:40:00,
2013-02-27 11:45:00,47.1,18.1,30.22,SSW,199,9.6,9.6,31,0.00,,SCT200,0.00,VWS V14.01,2013-02-27 19:45:00,
2013-02-27 11:50:00,46.6,17.6,30.22,SW,236,8.7,8.7,31,0.00,,SCT200,0.00,VWS V14.01,2013-02-27 19:50:00,
2013-02-27 11:55:00,46.4,18.2,30.19,WSW,251,7.2,7.2,32,0.00,,SCT200,0.00,VWS V14.01,2013-02-27 19:55:00,
2013-02-27 12:00:00,45.9,17.7,30.19,SSW,192,7.6,7.6,32,0.00,,SCT200,0.00,VWS V14.01,2013-02-27 20:00:00,
2013-02-27 12:05:00,45.3,17.2,30.19,WSW,237,7.6,8.7,32,0.00,,BKN200,0.00,VWS V14.01,2013-02-27 20:05:00,
2013-02-27 12:10:00,45.5,18.1,30.19,WSW,239,10.5,10.5,33,0.00,,BKN200,0.00,VWS V14.01,2013-02-27 20:10:00,
2013-02-27 12:15:00,45.7,17.5,30.19,SW,226,5.8,7.6,32,0.00,,BKN200,0.00,VWS V14.01,2013-02-27 20:15:00,
2013-02-27 12:20:00,45.3,17.9,30.19,SW,216,5.4,8.1,33,0.00,,BKN200,0.00,VWS V14.01,2013-02-27 20:20:00,
2013-02-27 12:25:00,46.0,18.6,30.19,WSW,239,9.6,9.6,33,0.00,,BKN200,0.00,VWS V14.01,2013-02-27 20:25:00,
2013-02-27 12:30:00,46.8,18.5,30.19,WSW,240,8.1,8.3,32,0.00,,BKN200,0.00,VWS V14.01,2013-02-27 20:30:00,
2013-02-27 12:35:00,46.4,18.2,30.19,SW,230,8.7,9.2,32,0.00,,BKN200,0.00,VWS V14.01,2013-02-27 20:35:00,
2013-02-27 12:40:00,46.2,18.7,30.19,WSW,243,8.7,8.7,33,0.00,,BKN200,0.00,VWS V14.01,2013-02-27 20:40:00,
2013-02-27 12:45:00,46.4,18.9,30.19,SW,230,10.1,10.1,33,0.00,,BKN200,0.00,VWS V14.01,2013-02-27 20:45:00,
2013-02-27 12:50:00,46.6,18.3,30.19,SW,230,6.3,8.1,32,0.00,,BKN200,0.00,VWS V14.01,2013-02-27 20:50:00,
2013-02-27 12:55:00,46.9,18.6,30.19,SSW,213,8.3,8.3,32,0.00,,BKN200,0.00,VWS V14.01,2013-02-27 20:55:00,
2013-02-27 13:00:00,47.7,19.3,30.19,SW,236,10.1,10.1,32,0.00,,BKN200,0.00,VWS V14.01,2013-02-27 21:00:00,
2013-02-27 13:05:00,48.2,19.0,30.19,WSW,241,7.6,7.6,31,0.00,,BKN200,0.00,VWS V14.01,2013-02-27 21:05:00,
2013-02-27 13:10:00,48.0,18.8,30.19,SSW,199,10.5,10.5,31,0.00,,BKN200,0.00,VWS V14.01,2013-02-27 21:10:00,
2013-02-27 13:15:00,47.3,18.2,30.19,SW,235,6.3,6.3,31,0.00,,BKN200,0.00,VWS V14.01,2013-02-27 21:15:00,
2013-02-27 13:20:00,46.6,17.6,30.19,SW,236,5.8,7.6,31,0.00,,BKN200,0.00,VWS V14.01,2013-02-27 21:20:00,
2013-02-27 13:25:00,46.0,17.9,30.19,SW,228,6.3,6.7,32,0.00,,BKN200,0.00,VWS V14.01,2013-02-27 21:25:00,
2013-02-27 13:30:00,45.9,18.4,30.19,SSW,208,6.3,6.3,33,0.00,,BKN200,0.00,VWS V14.01,2013-02-27 21:30:00,
2013-02-27 13:35:00,45.7,18.2,30.19,SW,232,8.3,8.7,33,0.00,,BKN200,0.00,VWS V14.01,2013-02-27 21:35:00,
2013-02-27 13:40:00,45.3,17.9,30.19,SW,216,6.3,7.6,33,0.00,,BKN200,0.00,VWS V14.01,2013-02-27 21:40:00,
2013-02-27 13:45:00,45.9,19.1,30.19,WSW,237,8.7,8.7,34,0.00,,BKN200,0.00,VWS V14.01,2013-02-27 21:45:00,
2013-02-27 13:50:00,46.6,18.3,30.19,West,259,5.4,6.3,32,0.00,,BKN200,0.00,VWS V14.01,2013-02-27 21:50:00,
2013-02-27 13:55:00,46.8,18.5,30.19,SW,235,5.4,5.8,32,0.00,,BKN200,0.00,VWS V14.01,2013-02-27 21:55:00,
2013-02-27 14:00:00,46.6,18.3,30.19,WSW,243,5.4,7.6,32,0.00,,BKN200,0.00,VWS V14.01,2013-02-27 22:00:00,
2013-02-27 14:05:00,46.8,18.5,30.19,SW,230,6.3,6.3,32,0.00,,BKN120,0.00,VWS V14.01,2013-02-27 22:05:00,
2013-02-27 14:10:00,46.8,18.5,30.19,WSW,237,4.0,5.4,32,0.00,,BKN120,0.00,VWS V14.01,2013-02-27 22:10:00,
2013-02-27 14:15:00,46.6,18.3,30.19,South,190,4.9,4.9,32,0.00,,BKN120,0.00,VWS V14.01,2013-02-27 22:15:00,
2013-02-27 14:20:00,46.8,17.7,30.19,SSW,197,0.0,0.0,31,0.00,,BKN120,0.00,VWS V14.01,2013-02-27 22:20:00,
2013-02-27 14:25:00,46.9,17.9,30.19,NW,312,0.0,0.0,31,0.00,,BKN120,0.00,VWS V14.01,2013-02-27 22:25:00,
2013-02-27 14:30:00,46.9,17.1,30.19,NW,324,5.8,5.8,30,0.00,,BKN120,0.00,VWS V14.01,2013-02-27 22:30:00,
2013-02-27 14:35:00,46.8,17.0,30.19,NW,320,4.0,4.0,30,0.00,,BKN120,0.00,VWS V14.01,2013-02-27 22:35:00,
2013-02-27 14:40:00,46.4,15.9,30.19,NNW,340,4.0,4.9,29,0.00,,BKN120,0.00,VWS V14.01,2013-02-27 22:40:00,
2013-02-27 14:45:00,46.6,16.0,30.19,NNW,334,0.0,2.7,29,0.00,,BKN120,0.00,VWS V14.01,2013-02-27 22:45:00,
2013-02-27 14:50:00,46.6,16.0,30.19,WSW,240,6.3,6.3,29,0.00,,BKN120,0.00,VWS V14.01,2013-02-27 22:50:00,
2013-02-27 14:55:00,47.1,16.5,30.19,West,266,8.1,8.1,29,0.00,,BKN120,0.00,VWS V14.01,2013-02-27 22:55:00,
2013-02-27 15:00:00,47.3,16.7,30.19,West,276,3.6,3.6,29,0.00,,BKN120,0.00,VWS V14.01,2013-02-27 23:00:00,
2013-02-27 15:05:00,47.3,16.7,30.19,West,265,2.2,4.0,29,0.00,,BKN200,0.00,VWS V14.01,2013-02-27 23:05:00,
2013-02-27 15:10:00,46.6,16.0,30.19,West,267,2.7,2.7,29,0.00,,BKN200,0.00,VWS V14.01,2013-02-27 23:10:00,
2013-02-27 15:15:00,45.7,16.0,30.19,WSW,251,5.8,7.2,30,0.00,,BKN200,0.00,VWS V14.01,2013-02-27 23:15:00,
2013-02-27 15:20:00,45.1,16.3,30.19,West,261,2.2,2.7,31,0.00,,BKN200,0.00,VWS V14.01,2013-02-27 23:20:00,
2013-02-27 15:25:00,45.0,15.4,30.19,West,277,3.1,3.6,30,0.00,,BKN200,0.00,VWS V14.01,2013-02-27 23:25:00,
2013-02-27 15:30:00,45.1,15.6,30.19,NNW,327,2.7,2.7,30,0.00,,BKN200,0.00,VWS V14.01,2013-02-27 23:30:00,
2013-02-27 15:35:00,45.1,15.6,30.19,NNW,333,0.0,0.0,30,0.00,,BKN200,0.00,VWS V14.01,2013-02-27 23:35:00,
2013-02-27 15:40:00,45.3,15.7,30.19,West,278,2.7,2.7,30,0.00,,BKN200,0.00,VWS V14.01,2013-02-27 23:40:00,
2013-02-27 15:45:00,45.5,15.9,30.19,SW,227,6.3,8.3,30,0.00,,BKN200,0.00,VWS V14.01,2013-02-27 23:45:00,
2013-02-27 15:50:00,45.5,15.9,30.19,West,271,6.3,6.3,30,0.00,,BKN200,0.00,VWS V14.01,2013-02-27 23:50:00,
2013-02-27 15:55:00,45.5,15.9,30.19,West,269,7.2,7.2,30,0.00,,BKN200,0.00,VWS V14.01,2013-02-27 23:55:00,
2013-02-27 16:00:00,45.5,15.9,30.19,West,263,6.7,6.7,30,0.00,,BKN200,0.00,VWS V14.01,2013-02-28 00:00:00,
2013-02-27 16:05:00,45.5,15.9,30.19,West,265,4.9,6.3,30,0.00,,BKN200,0.00,VWS V14.01,2013-02-28 00:05:00,
2013-02-27 16:10:00,45.3,15.7,30.19,WSW,253,6.3,6.3,30,0.00,,BKN200,0.00,VWS V14.01,2013-02-28 00:10:00,
2013-02-27 16:15:00,45.0,15.4,30.19,SW,234,4.9,6.7,30,0.00,,BKN200,0.00,VWS V14.01,2013-02-28 00:15:00,
2013-02-27 16:20:00,44.8,15.3,30.19,WSW,241,3.1,3.6,30,0.00,,BKN200,0.00,VWS V14.01,2013-02-28 00:20:00,
2013-02-27 16:25:00,44.8,15.3,30.19,West,273,2.7,2.7,30,0.00,,BKN200,0.00,VWS V14.01,2013-02-28 00:25:00,
2013-02-27 16:30:00,44.8,15.3,30.19,WSW,239,6.3,6.3,30,0.00,,BKN200,0.00,VWS V14.01,2013-02-28 00:30:00,
2013-02-27 16:35:00,44.8,15.3,30.19,WSW,246,4.9,5.4,30,0.00,,BKN200,0.00,VWS V14.01,2013-02-28 00:35:00,
2013-02-27 16:40:00,45.0,15.4,30.19,SW,220,4.0,4.0,30,0.00,,BKN200,0.00,VWS V14.01,2013-02-28 00:40:00,
2013-02-27 16:45:00,45.3,15.7,30.19,SW,231,5.4,5.4,30,0.00,,BKN200,0.00,VWS V14.01,2013-02-28 00:45:00,
2013-02-27 16:50:00,45.1,16.3,30.19,SSW,212,5.4,5.4,31,0.00,,BKN200,0.00,VWS V14.01,2013-02-28 00:50:00,
2013-02-27 16:55:00,44.4,16.4,30.19,SW,218,4.0,4.0,32,0.00,,BKN200,0.00,VWS V14.01,2013-02-28 00:55:00,
2013-02-27 17:00:00,43.9,15.9,30.19,SW,223,4.0,5.8,32,0.00,,BKN200,0.00,VWS V14.01,2013-02-28 01:00:00,
2013-02-27 17:05:00,43.5,15.6,30.19,SW,219,3.1,3.6,32,0.00,,BKN200,0.00,VWS V14.01,2013-02-28 01:05:00,
2013-02-27 17:10:00,43.2,16.0,30.19,SSW,211,3.1,3.1,33,0.00,,BKN200,0.00,VWS V14.01,2013-02-28 01:10:00,
2013-02-27 17:15:00,43.0,15.9,30.19,SSW,207,2.7,3.6,33,0.00,,BKN200,0.00,VWS V14.01,2013-02-28 01:15:00,
2013-02-27 17:20:00,42.6,16.2,30.19,SSW,213,2.7,2.7,34,0.00,,BKN200,0.00,VWS V14.01,2013-02-28 01:20:00,
2013-02-27 17:25:00,42.1,15.8,30.19,SW,217,3.6,3.6,34,0.00,,BKN200,0.00,VWS V14.01,2013-02-28 01:25:00,
2013-02-27 17:30:00,41.5,15.9,30.19,SW,217,2.2,3.1,35,0.00,,BKN200,0.00,VWS V14.01,2013-02-28 01:30:00,
2013-02-27 17:35:00,41.0,16.1,30.19,SW,217,2.7,2.7,36,0.00,,BKN200,0.00,VWS V14.01,2013-02-28 01:35:00,
2013-02-27 17:40:00,40.6,16.4,30.19,SW,217,0.0,2.2,37,0.00,,BKN200,0.00,VWS V14.01,2013-02-28 01:40:00,
2013-02-27 17:45:00,40.3,16.7,30.19,SW,217,0.0,0.0,38,0.00,,BKN200,0.00,VWS V14.01,2013-02-28 01:45:00,
2013-02-27 17:50:00,39.7,15.6,30.19,SW,217,0.0,0.0,37,0.00,,BKN200,0.00,VWS V14.01,2013-02-28 01:50:00,
2013-02-27 17:55:00,38.7,15.3,30.19,SW,217,0.0,0.0,38,0.00,,BKN200,0.00,VWS V14.01,2013-02-28 01:55:00,
2013-02-27 18:00:00,37.9,15.2,30.19,SW,217,0.0,0.0,39,0.00,,BKN200,0.00,VWS V14.01,2013-02-28 02:00:00,
2013-02-27 18:05:00,37.2,14.6,30.19,SW,217,0.0,0.0,39,0.00,,BKN200,0.00,VWS V14.01,2013-02-28 02:05:00,
2013-02-27 18:10:00,36.9,14.8,30.19,SW,217,0.0,0.0,40,0.00,,OVC200,0.00,VWS V14.01,2013-02-28 02:10:00,
2013-02-27 18:15:00,36.7,15.8,30.19,SW,217,0.0,0.0,42,0.00,,OVC200,0.00,VWS V14.01,2013-02-28 02:15:00,
2013-02-27 18:20:00,36.7,15.8,30.19,SW,217,0.0,0.0,42,0.00,,OVC200,0.00,VWS V14.01,2013-02-28 02:20:00,
2013-02-27 18:25:00,36.3,15.4,30.19,SW,217,0.0,0.0,42,0.00,,OVC200,0.00,VWS V14.01,2013-02-28 02:25:00,
2013-02-27 18:30:00,36.1,15.3,30.19,SW,217,0.0,0.0,42,0.00,,OVC200,0.00,VWS V14.01,2013-02-28 02:30:00,
2013-02-27 18:35:00,35.8,15.5,30.19,SW,217,0.0,0.0,43,0.00,,OVC200,0.00,VWS V14.01,2013-02-28 02:35:00,
2013-02-27 18:40:00,35.4,15.2,30.19,SW,217,0.0,0.0,43,0.00,,OVC200,0.00,VWS V14.01,2013-02-28 02:40:00,
2013-02-27 18:45:00,35.1,14.8,30.19,SW,217,0.0,0.0,43,0.00,,OVC200,0.00,VWS V14.01,2013-02-28 02:45:00,
2013-02-27 18:50:00,34.9,14.7,30.19,SW,217,0.0,0.0,43,0.00,,OVC200,0.00,VWS V14.01,2013-02-28 02:50:00,
2013-02-27 18:55:00,34.5,14.9,30.19,SW,217,0.0,0.0,44,0.00,,OVC200,0.00,VWS V14.01,2013-02-28 02:55:00,
2013-02-27 19:00:00,34.5,14.9,30.19,SW,217,0.0,0.0,44,0.00,,OVC200,0.00,VWS V14.01,2013-02-28 03:00:00,
2013-02-27 19:05:00,34.2,14.5,30.19,SW,217,0.0,0.0,44,0.00,,OVC200,0.00,VWS V14.01,2013-02-28 03:05:00,
2013-02-27 19:10:00,34.3,15.7,30.19,SW,217,0.0,0.0,46,0.00,,OVC200,0.00,VWS V14.01,2013-02-28 03:10:00,
2013-02-27 19:15:00,34.9,16.7,30.19,SW,217,0.0,0.0,47,0.00,,OVC200,0.00,VWS V14.01,2013-02-28 03:15:00,
2013-02-27 19:20:00,35.1,16.9,30.19,SW,217,0.0,0.0,47,0.00,,OVC200,0.00,VWS V14.01,2013-02-28 03:20:00,
2013-02-27 19:25:00,35.1,16.9,30.19,SW,217,0.0,0.0,47,0.00,,OVC200,0.00,VWS V14.01,2013-02-28 03:25:00,
2013-02-27 19:30:00,35.4,17.2,30.19,SW,217,0.0,0.0,47,0.00,,OVC200,0.00,VWS V14.01,2013-02-28 03:30:00,
2013-02-27 19:35:00,35.8,17.5,30.19,SW,217,0.0,0.0,47,0.00,,OVC200,0.00,VWS V14.01,2013-02-28 03:35:00,
2013-02-27 19:40:00,36.1,17.9,30.19,SW,217,0.0,0.0,47,0.00,,OVC200,0.00,VWS V14.01,2013-02-28 03:40:00,
2013-02-27 19:45:00,36.1,17.4,30.19,SW,217,0.0,0.0,46,0.00,,OVC200,0.00,VWS V14.01,2013-02-28 03:45:00,
2013-02-27 19:50:00,36.1,17.4,30.19,SW,217,0.0,0.0,46,0.00,,OVC200,0.00,VWS V14.01,2013-02-28 03:50:00,
2013-02-27 19:55:00,35.8,17.0,30.16,SW,217,0.0,0.0,46,0.00,,OVC200,0.00,VWS V14.01,2013-02-28 03:55:00,
2013-02-27 20:00:00,35.6,17.4,30.16,SW,217,0.0,0.0,47,0.00,,OVC200,0.00,VWS V14.01,2013-02-28 04:00:00,
2013-02-27 20:04:00,35.6,17.4,30.16,SW,217,0.0,0.0,47,0.00,,OVC110,0.00,VWS V14.01,2013-02-28 04:04:00,
2013-02-27 20:09:00,35.6,17.4,30.19,SW,217,0.0,0.0,47,0.00,,OVC110,0.00,VWS V14.01,2013-02-28 04:09:00,
2013-02-27 20:14:00,35.6,17.4,30.19,SW,217,0.0,0.0,47,0.00,,OVC110,0.00,VWS V14.01,2013-02-28 04:14:00,
2013-02-27 20:19:00,35.4,17.2,30.19,SW,217,0.0,0.0,47,0.00,,OVC110,0.00,VWS V14.01,2013-02-28 04:19:00,
2013-02-27 20:24:00,35.4,17.7,30.19,SW,217,0.0,0.0,48,0.00,,OVC110,0.00,VWS V14.01,2013-02-28 04:24:00,
2013-02-27 20:29:00,35.4,18.2,30.19,SSW,208,2.7,2.7,49,0.00,,OVC110,0.00,VWS V14.01,2013-02-28 04:29:00,
2013-02-27 20:34:00,35.4,18.6,30.19,SSE,155,2.2,2.7,50,0.00,,OVC110,0.00,VWS V14.01,2013-02-28 04:34:00,
2013-02-27 20:39:00,35.2,18.5,30.19,SSE,155,0.0,0.0,50,0.00,,OVC110,0.00,VWS V14.01,2013-02-28 04:39:00,
2013-02-27 20:44:00,35.2,18.5,30.19,SSE,155,0.0,0.0,50,0.00,,OVC110,0.00,VWS V14.01,2013-02-28 04:44:00,
2013-02-27 20:49:00,35.2,18.5,30.19,SSE,155,0.0,0.0,50,0.00,,OVC110,0.00,VWS V14.01,2013-02-28 04:49:00,
2013-02-27 20:54:00,35.2,18.5,30.19,SSE,155,0.0,0.0,50,0.00,,OVC110,0.00,VWS V14.01,2013-02-28 04:54:00,
2013-02-27 20:59:00,35.2,18.5,30.19,SSE,155,0.0,0.0,50,0.00,,OVC110,0.00,VWS V14.01,2013-02-28 04:59:00,
2013-02-27 21:00:00,35.2,18.5,30.19,SSE,155,0.0,0.0,50,0.00,,OVC110,0.00,VWS V14.01,2013-02-28 05:00:00,
2013-02-27 21:05:00,35.2,18.5,30.19,SSE,155,0.0,0.0,50,0.00,,OVC110,0.00,VWS V14.01,2013-02-28 05:05:00,
2013-02-27 21:10:00,35.2,18.5,30.19,SSE,155,0.0,0.0,50,0.00,,OVC110,0.00,VWS V14.01,2013-02-28 05:10:00,
2013-02-27 21:15:00,35.4,18.6,30.19,SSE,155,2.2,2.2,50,0.00,,OVC110,0.00,VWS V14.01,2013-02-28 05:15:00,
2013-02-27 21:20:00,35.4,18.6,30.19,SSE,155,2.2,2.7,50,0.00,,OVC110,0.00,VWS V14.01,2013-02-28 05:20:00,
2013-02-27 21:25:00,35.6,18.8,30.19,SSE,155,0.0,0.0,50,0.00,,OVC110,0.00,VWS V14.01,2013-02-28 05:25:00,
2013-02-27 21:30:00,35.6,18.8,30.19,SSE,155,0.0,0.0,50,0.00,,OVC110,0.00,VWS V14.01,2013-02-28 05:30:00,
2013-02-27 21:35:00,35.6,18.8,30.19,SSE,155,0.0,0.0,50,0.00,,OVC110,0.00,VWS V14.01,2013-02-28 05:35:00,
2013-02-27 21:40:00,35.8,19.0,30.19,SSE,155,2.2,2.7,50,0.00,,OVC110,0.00,VWS V14.01,2013-02-28 05:40:00,
2013-02-27 21:45:00,35.8,19.0,30.19,SSE,155,0.0,0.0,50,0.00,,OVC110,0.00,VWS V14.01,2013-02-28 05:45:00,
2013-02-27 21:50:00,35.8,19.0,30.19,SSE,155,0.0,0.0,50,0.00,,OVC110,0.00,VWS V14.01,2013-02-28 05:50:00,
2013-02-27 21:55:00,35.8,19.0,30.19,SSE,155,0.0,0.0,50,0.00,,OVC110,0.00,VWS V14.01,2013-02-28 05:55:00,
2013-02-27 22:00:00,35.8,19.0,30.19,SSE,155,0.0,0.0,50,0.00,,OVC110,0.00,VWS V14.01,2013-02-28 06:00:00,
2013-02-27 22:05:00,35.8,19.0,30.19,SSE,155,0.0,0.0,50,0.00,,OVC110,0.00,VWS V14.01,2013-02-28 06:05:00,
2013-02-27 22:10:00,35.8,19.0,30.19,SSE,155,0.0,0.0,50,0.00,,OVC110,0.00,VWS V14.01,2013-02-28 06:10:00,
2013-02-27 22:15:00,35.8,19.0,30.19,SSE,155,0.0,0.0,50,0.00,,OVC110,0.00,VWS V14.01,2013-02-28 06:15:00,
2013-02-27 22:20:00,35.6,18.8,30.19,SSE,155,0.0,0.0,50,0.00,,OVC110,0.00,VWS V14.01,2013-02-28 06:20:00,
2013-02-27 22:25:00,35.6,18.8,30.22,SSE,155,0.0,0.0,50,0.00,,OVC110,0.00,VWS V14.01,2013-02-28 06:25:00,
2013-02-27 22:30:00,35.4,19.1,30.22,SSE,155,0.0,0.0,51,0.00,,OVC110,0.00,VWS V14.01,2013-02-28 06:30:00,
2013-02-27 22:35:00,35.4,19.1,30.22,SSE,155,0.0,0.0,51,0.00,,OVC110,0.00,VWS V14.01,2013-02-28 06:35:00,
2013-02-27 22:40:00,35.4,19.1,30.19,SSE,154,0.0,0.0,51,0.00,,OVC110,0.00,VWS V14.01,2013-02-28 06:40:00,
2013-02-27 22:45:00,35.4,19.1,30.19,SSE,154,0.0,0.0,51,0.00,,OVC110,0.00,VWS V14.01,2013-02-28 06:45:00,
2013-02-27 22:50:00,35.4,19.1,30.19,SSE,154,0.0,0.0,51,0.00,,OVC110,0.00,VWS V14.01,2013-02-28 06:50:00,
2013-02-27 22:55:00,35.1,18.8,30.19,SSE,154,0.0,0.0,51,0.00,,OVC110,0.00,VWS V14.01,2013-02-28 06:55:00,
2013-02-27 23:00:00,34.9,18.6,30.19,SSE,154,0.0,0.0,51,0.00,,OVC110,0.00,VWS V14.01,2013-02-28 07:00:00,
2013-02-27 23:05:00,34.9,19.1,30.19,SSE,154,2.2,2.2,52,0.00,,OVC100,0.00,VWS V14.01,2013-02-28 07:05:00,
2013-02-27 23:10:00,34.7,18.9,30.19,SSE,154,0.0,0.0,52,0.00,,OVC100,0.00,VWS V14.01,2013-02-28 07:10:00,
2013-02-27 23:15:00,34.5,18.7,30.19,SSE,154,0.0,0.0,52,0.00,,OVC100,0.00,VWS V14.01,2013-02-28 07:15:00,
2013-02-27 23:20:00,34.3,18.5,30.19,SSE,154,0.0,0.0,52,0.00,,OVC100,0.00,VWS V14.01,2013-02-28 07:20:00,
2013-02-27 23:25:00,34.0,18.2,30.16,SSE,154,0.0,0.0,52,0.00,,OVC100,0.00,VWS V14.01,2013-02-28 07:25:00,
2013-02-27 23:30:00,33.8,18.0,30.16,SSE,154,0.0,0.0,52,0.00,,OVC100,0.00,VWS V14.01,2013-02-28 07:30:00,
2013-02-27 23:35:00,33.8,18.0,30.16,SSE,154,0.0,0.0,52,0.00,,OVC100,0.00,VWS V14.01,2013-02-28 07:35:00,
2013-02-27 23:40:00,33.6,18.8,30.19,SSE,154,2.2,2.7,54,0.00,,OVC100,0.00,VWS V14.01,2013-02-28 07:40:00,
2013-02-27 23:45:00,33.8,18.9,30.19,SSE,154,0.0,0.0,54,0.00,,OVC100,0.00,VWS V14.01,2013-02-28 07:45:00,
2013-02-27 23:50:00,33.8,18.9,30.19,SSE,154,0.0,0.0,54,0.00,,OVC100,0.00,VWS V14.01,2013-02-28 07:50:00,
2013-02-27 23:55:00,33.8,19.4,30.19,SE,127,0.0,0.0,55,0.00,,OVC100,0.00,VWS V14.01,2013-02-28 07:55:00,